Time,TemperatureF,DewpointF,PressureIn,WindDirection,WindDirectionDegrees,WindSpeedMPH,WindSpeedGustMPH,Humidity,HourlyPrecipIn,Conditions,Clouds,dailyrainin,SoftwareType,DateUTC
2013-06-16 00:13:00,65.6,47.0,29.94,SSE,151,0.0,-999.0,51,-99.99,,,0.00,weatherlink.com 1.10,2013-06-16 07:13:00,
2013-06-16 00:28:00,65.1,46.0,29.93,SSE,151,0.0,-999.0,51,-99.99,,,0.00,weatherlink.com 1.10,2013-06-16 07:28:00,
2013-06-16 00:43:00,64.9,46.0,29.93,SSE,151,0.0,-999.0,51,-99.99,,,0.00,weatherlink.com 1.10,2013-06-16 07:43:00,
2013-06-16 00:58:00,64.4,46.0,29.93,SSE,151,0.0,-999.0,52,-99.99,,,0.00,weatherlink.com 1.10,2013-06-16 07:58:00,
2013-06-16 01:13:00,64.0,46.0,29.93,SSE,151,0.0,-999.0,53,-99.99,,,0.00,weatherlink.com 1.10,2013-06-16 08:13:00,
2013-06-16 01:28:00,64.3,47.0,29.93,SSE,151,0.0,-999.0,53,-99.99,,,0.00,weatherlink.com 1.10,2013-06-16 08:28:00,
2013-06-16 01:43:00,64.0,46.0,29.93,SSE,151,0.0,-999.0,53,-99.99,,,0.00,weatherlink.com 1.10,2013-06-16 08:43:00,
2013-06-16 01:58:00,64.3,46.0,29.93,SSE,151,0.0,-999.0,52,-99.99,,,0.00,weatherlink.com 1.10,2013-06-16 08:58:00,
2013-06-16 02:13:00,64.2,46.0,29.92,SSE,151,0.0,-999.0,52,-99.99,,,0.00,weatherlink.com 1.10,2013-06-16 09:13:00,
2013-06-16 02:28:00,64.4,46.0,29.92,SSE,151,0.0,-999.0,52,-99.99,,,0.00,weatherlink.com 1.10,2013-06-16 09:28:00,
2013-06-16 02:43:00,64.9,47.0,29.91,SSE,151,0.0,-999.0,52,-99.99,,,0.00,weatherlink.com 1.10,2013-06-16 09:43:00,
2013-06-16 02:58:00,65.6,47.0,29.92,SSE,151,0.0,-999.0,51,-99.99,,,0.00,weatherlink.com 1.10,2013-06-16 09:58:00,
2013-06-16 03:13:00,65.2,47.0,29.92,SSE,151,0.0,-999.0,52,-99.99,,,0.00,weatherlink.com 1.10,2013-06-16 10:13:00,
2013-06-16 03:28:00,65.4,47.0,29.92,SSE,151,0.0,-999.0,51,-99.99,,,0.00,weatherlink.com 1.10,2013-06-16 10:28:00,
2013-06-16 03:43:00,65.2,46.0,29.93,SSE,151,0.0,-999.0,51,-99.99,,,0.00,weatherlink.com 1.10,2013-06-16 10:43:00,
2013-06-16 03:58:00,65.1,46.0,29.93,SSE,151,0.0,-999.0,51,-99.99,,,0.00,weatherlink.com 1.10,2013-06-16 10:58:00,
2013-06-16 04:13:00,65.3,47.0,29.93,SSE,151,0.0,-999.0,51,-99.99,,,0.00,weatherlink.com 1.10,2013-06-16 11:13:00,
2013-06-16 04:28:00,65.3,47.0,29.94,SSE,151,0.0,-999.0,51,-99.99,,,0.00,weatherlink.com 1.10,2013-06-16 11:28:00,
2013-06-16 04:43:00,65.2,46.0,29.94,SSE,151,0.0,-999.0,51,-99.99,,,0.00,weatherlink.com 1.10,2013-06-16 11:43:00,
2013-06-16 04:58:00,65.0,47.0,29.95,SSE,151,0.0,-999.0,52,-99.99,,,0.00,weatherlink.com 1.10,2013-06-16 11:58:00,
2013-06-16 05:13:00,65.0,47.0,29.95,SSE,151,0.0,-999.0,52,-99.99,,,0.00,weatherlink.com 1.10,2013-06-16 12:13:00,
2013-06-16 05:28:00,65.2,47.0,29.95,SSE,151,0.0,-999.0,52,-99.99,,,0.00,weatherlink.com 1.10,2013-06-16 12:28:00,
2013-06-16 05:43:00,65.9,48.0,29.95,West,280,0.0,-999.0,52,-99.99,,,0.00,weatherlink.com 1.10,2013-06-16 12:43:00,
2013-06-16 05:58:00,66.4,48.0,29.96,West,280,0.0,-999.0,52,-99.99,,,0.00,weatherlink.com 1.10,2013-06-16 12:58:00,
2013-06-16 06:13:00,68.0,49.0,29.96,West,275,0.0,-999.0,51,-99.99,,,0.00,weatherlink.com 1.10,2013-06-16 13:13:00,
2013-06-16 06:28:00,71.0,50.0,29.96,West,275,0.0,-999.0,48,-99.99,,,0.00,weatherlink.com 1.10,2013-06-16 13:28:00,
2013-06-16 06:43:00,72.7,50.0,29.96,SE,135,1.0,-999.0,45,-99.99,,,0.00,weatherlink.com 1.10,2013-06-16 13:43:00,
2013-06-16 06:58:00,73.6,50.0,29.97,SE,140,0.0,-999.0,44,-99.99,,,0.00,weatherlink.com 1.10,2013-06-16 13:58:00,
2013-06-16 07:13:00,74.9,50.0,29.97,SE,128,5.0,-999.0,42,-99.99,,,0.00,weatherlink.com 1.10,2013-06-16 14:13:00,
2013-06-16 07:28:00,74.8,52.0,29.98,ESE,115,0.0,-999.0,45,-99.99,,,0.00,weatherlink.com 1.10,2013-06-16 14:28:00,
2013-06-16 07:43:00,74.8,51.0,29.98,ESE,110,2.0,-999.0,43,-99.99,,,0.00,weatherlink.com 1.10,2013-06-16 14:43:00,
2013-06-16 07:58:00,74.4,51.0,29.98,SE,126,2.0,-999.0,44,-99.99,,,0.00,weatherlink.com 1.10,2013-06-16 14:58:00,
2013-06-16 08:13:00,74.4,52.0,29.99,SE,128,0.0,-999.0,45,-99.99,,,0.00,weatherlink.com 1.10,2013-06-16 15:13:00,
2013-06-16 08:28:00,76.5,51.0,29.99,SE,134,1.0,-999.0,41,-99.99,,,0.00,weatherlink.com 1.10,2013-06-16 15:28:00,
2013-06-16 08:43:00,77.8,51.0,29.99,SE,130,0.0,-999.0,39,-99.99,,,0.00,weatherlink.com 1.10,2013-06-16 15:43:00,
2013-06-16 08:58:00,78.9,50.0,29.98,SE,140,0.0,-999.0,37,-99.99,,,0.00,weatherlink.com 1.10,2013-06-16 15:58:00,
2013-06-16 09:13:00,78.5,51.0,29.98,SE,126,4.0,-999.0,38,-99.99,,,0.00,weatherlink.com 1.10,2013-06-16 16:13:00,
2013-06-16 09:28:00,78.4,51.0,29.98,SSE,148,6.0,-999.0,39,-99.99,,,0.00,weatherlink.com 1.10,2013-06-16 16:28:00,
2013-06-16 09:43:00,80.2,52.0,29.98,SE,140,4.0,-999.0,38,-99.99,,,0.00,weatherlink.com 1.10,2013-06-16 16:43:00,
2013-06-16 09:58:00,79.9,52.0,29.99,SE,142,0.0,-999.0,38,-99.99,,,0.00,weatherlink.com 1.10,2013-06-16 16:58:00,
2013-06-16 10:13:00,80.7,53.0,29.99,SE,130,1.0,-999.0,38,-99.99,,,0.00,weatherlink.com 1.10,2013-06-16 17:13:00,
2013-06-16 10:28:00,82.5,52.0,29.99,SE,136,5.0,-999.0,35,-99.99,,,0.00,weatherlink.com 1.10,2013-06-16 17:28:00,
2013-06-16 10:43:00,83.3,50.0,29.99,SSE,150,2.0,-999.0,31,-99.99,,,0.00,weatherlink.com 1.10,2013-06-16 17:43:00,
2013-06-16 10:58:00,83.9,50.0,29.99,SE,144,0.0,-999.0,31,-99.99,,,0.00,weatherlink.com 1.10,2013-06-16 17:58:00,
2013-06-16 11:13:00,86.1,51.0,29.99,East,91,2.0,-999.0,30,-99.99,,,0.00,weatherlink.com 1.10,2013-06-16 18:13:00,
2013-06-16 11:29:00,86.6,51.0,29.98,ESE,102,0.0,-999.0,29,-99.99,,,0.00,weatherlink.com 1.10,2013-06-16 18:29:00,
2013-06-16 11:44:00,87.0,49.0,29.98,South,190,0.0,-999.0,27,-99.99,,,0.00,weatherlink.com 1.10,2013-06-16 18:44:00,
2013-06-16 11:59:00,85.9,50.0,29.98,SE,140,0.0,-999.0,29,-99.99,,,0.00,weatherlink.com 1.10,2013-06-16 18:59:00,
2013-06-16 12:14:00,87.6,51.0,29.97,NW,317,1.0,-999.0,28,-99.99,,,0.00,weatherlink.com 1.10,2013-06-16 19:14:00,
2013-06-16 12:29:00,85.7,51.0,29.97,SSW,202,0.0,-999.0,30,-99.99,,,0.00,weatherlink.com 1.10,2013-06-16 19:29:00,
2013-06-16 12:44:00,85.9,50.0,29.97,NW,304,0.0,-999.0,29,-99.99,,,0.00,weatherlink.com 1.10,2013-06-16 19:44:00,
2013-06-16 12:59:00,86.0,50.0,29.96,ESE,105,4.0,-999.0,29,-99.99,,,0.00,weatherlink.com 1.10,2013-06-16 19:59:00,
2013-06-16 13:14:00,85.9,51.0,29.95,SE,138,7.0,-999.0,30,-99.99,,,0.00,weatherlink.com 1.10,2013-06-16 20:14:00,
2013-06-16 13:30:00,86.7,50.0,29.95,East,98,0.0,-999.0,28,-99.99,,,0.00,weatherlink.com 1.10,2013-06-16 20:30:00,
2013-06-16 13:44:00,86.8,50.0,29.94,SE,144,0.0,-999.0,28,-99.99,,,0.00,weatherlink.com 1.10,2013-06-16 20:44:00,
2013-06-16 13:59:00,85.7,49.0,29.93,SSW,200,0.0,-999.0,28,-99.99,,,0.00,weatherlink.com 1.10,2013-06-16 20:59:00,
2013-06-16 14:14:00,85.5,50.0,29.93,SE,138,2.0,-999.0,29,-99.99,,,0.00,weatherlink.com 1.10,2013-06-16 21:14:00,
2013-06-16 14:29:00,84.5,49.0,29.93,SE,141,2.0,-999.0,29,-99.99,,,0.00,weatherlink.com 1.10,2013-06-16 21:29:00,
2013-06-16 14:44:00,86.5,48.0,29.92,SSE,149,2.0,-999.0,26,-99.99,,,0.00,weatherlink.com 1.10,2013-06-16 21:44:00,
2013-06-16 14:59:00,88.3,49.0,29.91,NW,310,0.0,-999.0,26,-99.99,,,0.00,weatherlink.com 1.10,2013-06-16 21:59:00,
2013-06-16 15:15:00,89.1,49.0,29.90,WNW,283,1.0,-999.0,25,-99.99,,,0.00,weatherlink.com 1.10,2013-06-16 22:15:00,
2013-06-16 15:29:00,89.8,48.0,29.90,West,265,0.0,-999.0,24,-99.99,,,0.00,weatherlink.com 1.10,2013-06-16 22:29:00,
2013-06-16 15:44:00,90.4,48.0,29.90,West,261,3.0,-999.0,23,-99.99,,,0.00,weatherlink.com 1.10,2013-06-16 22:44:00,
2013-06-16 15:59:00,90.1,46.0,29.90,NW,312,4.0,-999.0,22,-99.99,,,0.00,weatherlink.com 1.10,2013-06-16 22:59:00,
2013-06-16 16:14:00,90.1,45.0,29.90,West,261,0.0,-999.0,21,-99.99,,,0.00,weatherlink.com 1.10,2013-06-16 23:14:00,
2013-06-16 16:29:00,90.5,42.0,29.89,WNW,295,4.0,-999.0,18,-99.99,,,0.00,weatherlink.com 1.10,2013-06-16 23:29:00,
2013-06-16 16:44:00,90.1,45.0,29.89,WSW,244,0.0,-999.0,21,-99.99,,,0.00,weatherlink.com 1.10,2013-06-16 23:44:00,
2013-06-16 16:59:00,90.2,40.0,29.89,WNW,300,0.0,-999.0,17,-99.99,,,0.00,weatherlink.com 1.10,2013-06-16 23:59:00,
2013-06-16 17:14:00,90.2,38.0,29.88,West,274,0.0,-999.0,16,-99.99,,,0.00,weatherlink.com 1.10,2013-06-17 00:14:00,
2013-06-16 17:29:00,89.7,36.0,29.89,SE,140,0.0,-999.0,15,-99.99,,,0.00,weatherlink.com 1.10,2013-06-17 00:29:00,
2013-06-16 17:44:00,88.3,35.0,29.89,WSW,252,0.0,-999.0,15,-99.99,,,0.00,weatherlink.com 1.10,2013-06-17 00:44:00,
2013-06-16 17:59:00,88.1,33.0,29.89,SW,215,0.0,-999.0,14,-99.99,,,0.00,weatherlink.com 1.10,2013-06-17 00:59:00,
2013-06-16 18:14:00,87.4,34.0,29.89,West,270,0.0,-999.0,15,-99.99,,,0.00,weatherlink.com 1.10,2013-06-17 01:14:00,
2013-06-16 18:29:00,87.5,33.0,29.89,West,270,0.0,-999.0,14,-99.99,,,0.00,weatherlink.com 1.10,2013-06-17 01:29:00,
2013-06-16 18:44:00,87.1,32.0,29.90,SSW,205,3.0,-999.0,14,-99.99,,,0.00,weatherlink.com 1.10,2013-06-17 01:44:00,
2013-06-16 18:59:00,84.8,32.0,29.90,WSW,246,0.0,-999.0,15,-99.99,,,0.00,weatherlink.com 1.10,2013-06-17 01:59:00,
2013-06-16 19:14:00,83.2,33.0,29.91,West,272,0.0,-999.0,16,-99.99,,,0.00,weatherlink.com 1.10,2013-06-17 02:14:00,
2013-06-16 19:29:00,82.7,34.0,29.91,West,272,0.0,-999.0,17,-99.99,,,0.00,weatherlink.com 1.10,2013-06-17 02:29:00,
2013-06-16 19:44:00,81.0,34.0,29.91,West,265,0.0,-999.0,18,-99.99,,,0.00,weatherlink.com 1.10,2013-06-17 02:44:00,
2013-06-16 19:59:00,80.5,33.0,29.91,West,259,0.0,-999.0,18,-99.99,,,0.00,weatherlink.com 1.10,2013-06-17 02:59:00,
2013-06-16 20:14:00,79.7,34.0,29.91,WSW,254,0.0,-999.0,19,-99.99,,,0.00,weatherlink.com 1.10,2013-06-17 03:14:00,
2013-06-16 20:29:00,79.3,32.0,29.92,West,260,1.0,-999.0,18,-99.99,,,0.00,weatherlink.com 1.10,2013-06-17 03:29:00,
2013-06-16 20:44:00,79.7,31.0,29.92,WSW,250,0.0,-999.0,17,-99.99,,,0.00,weatherlink.com 1.10,2013-06-17 03:44:00,
2013-06-16 20:59:00,79.1,32.0,29.92,WSW,254,0.0,-999.0,18,-99.99,,,0.00,weatherlink.com 1.10,2013-06-17 03:59:00,
2013-06-16 21:14:00,78.4,31.0,29.93,West,263,0.0,-999.0,18,-99.99,,,0.00,weatherlink.com 1.10,2013-06-17 04:14:00,
2013-06-16 21:29:00,78.2,31.0,29.93,West,263,0.0,-999.0,18,-99.99,,,0.00,weatherlink.com 1.10,2013-06-17 04:29:00,
2013-06-16 21:44:00,78.3,33.0,29.94,WSW,254,0.0,-999.0,19,-99.99,,,0.00,weatherlink.com 1.10,2013-06-17 04:44:00,
2013-06-16 21:59:00,77.8,32.0,29.94,WSW,253,0.0,-999.0,19,-99.99,,,0.00,weatherlink.com 1.10,2013-06-17 04:59:00,
2013-06-16 22:14:00,77.4,33.0,29.94,West,266,0.0,-999.0,20,-99.99,,,0.00,weatherlink.com 1.10,2013-06-17 05:14:00,
2013-06-16 22:29:00,77.3,34.0,29.94,West,267,0.0,-999.0,21,-99.99,,,0.00,weatherlink.com 1.10,2013-06-17 05:29:00,
2013-06-16 22:44:00,77.5,35.0,29.94,West,273,0.0,-999.0,21,-99.99,,,0.00,weatherlink.com 1.10,2013-06-17 05:44:00,
2013-06-16 22:59:00,76.6,34.0,29.94,West,261,4.0,-999.0,21,-99.99,,,0.00,weatherlink.com 1.10,2013-06-17 05:59:00,
2013-06-16 23:14:00,75.3,33.0,29.93,West,261,1.0,-999.0,21,-99.99,,,0.00,weatherlink.com 1.10,2013-06-17 06:14:00,
2013-06-16 23:29:00,75.4,30.0,29.93,West,267,1.0,-999.0,19,-99.99,,,0.00,weatherlink.com 1.10,2013-06-17 06:29:00,
2013-06-16 23:44:00,75.4,30.0,29.93,West,277,0.0,-999.0,19,-99.99,,,0.00,weatherlink.com 1.10,2013-06-17 06:44:00,
2013-06-16 23:59:00,74.1,32.0,29.94,WNW,284,0.0,-999.0,21,-99.99,,,0.00,weatherlink.com 1.10,2013-06-17 06:59:00,